| time (UTC) | temp F | wind direction | speed knots | gust knots | rain 1hr in | rain 24hr in | rain mn in | humidity % | barometer mb |
| 20260504001004 | 45 | 243 | 2.6 | 5.2 | 0.03 | 0.08 | 0.08 | 91 | 1008.9 |
| 20260504000503 | 45 | 234 | 1.7 | 5.2 | 0.02 | 0.07 | 0.07 | 91 | 1009.0 |
| 20260504000003 | 45 | 219 | 1.7 | 5.2 | 0.02 | 0.07 | 0.07 | 90 | 1008.7 |
| 20260503235004 | 45 | 123 | 0.9 | 5.2 | 0.01 | 0.06 | 0.06 | 88 | 1009.1 |
| 20260503234003 | 45 | 203 | 1.7 | 4.3 | 0.01 | 0.06 | 0.06 | 89 | 1008.8 |
| 20260503233503 | 45 | 266 | 1.7 | 7.8 | 0.01 | 0.06 | 0.06 | 91 | 1008.5 |
| 20260503233003 | 45 | 184 | 2.6 | 7.8 | 0.01 | 0.06 | 0.06 | 91 | 1008.5 |
| 20260503232503 | 44 | 193 | 1.7 | 7.8 | 0.00 | 0.05 | 0.05 | 91 | 1008.8 |
| 20260503232003 | 44 | 198 | 1.7 | 6.1 | 0.00 | 0.05 | 0.05 | 93 | 1008.8 |
| 20260503231503 | 44 | 224 | 0.9 | 6.1 | 0.00 | 0.05 | 0.05 | 94 | 1009.1 |
| 20260503231003 | 44 | 338 | 0.9 | 6.1 | 0.01 | 0.05 | 0.05 | 94 | 1008.5 |
| 20260503230503 | 44 | 189 | 2.6 | 6.1 | 0.01 | 0.05 | 0.05 | 94 | 1008.5 |
| 20260503230003 | 43 | 189 | 3.5 | 6.1 | 0.01 | 0.05 | 0.05 | 94 | 1008.8 |
| 20260503225503 | 43 | 155 | 0.9 | 5.2 | 0.01 | 0.05 | 0.05 | 95 | 1008.8 |
| 20260503224503 | 43 | 152 | 0.9 | 4.3 | 0.01 | 0.05 | 0.05 | 95 | 1009.1 |
| 20260503224003 | 43 | 171 | 2.6 | 5.2 | 0.01 | 0.05 | 0.05 | 95 | 1008.5 |
| 20260503223503 | 43 | 165 | 2.6 | 5.2 | 0.01 | 0.05 | 0.05 | 95 | 1009.1 |
| 20260503223003 | 43 | 168 | 2.6 | 5.2 | 0.01 | 0.05 | 0.05 | 95 | 1009.1 |
| 20260503222004 | 43 | 186 | 2.6 | 7.8 | 0.01 | 0.05 | 0.05 | 94 | 1009.1 |
| 20260503221503 | 43 | 194 | 2.6 | 7.8 | 0.01 | 0.05 | 0.05 | 93 | 1009.5 |
| 20260503221003 | 43 | 187 | 2.6 | 5.2 | 0.00 | 0.04 | 0.04 | 93 | 1009.5 |
| 20260503220503 | 43 | 170 | 2.6 | 5.2 | 0.00 | 0.04 | 0.04 | 93 | 1008.8 |
| 20260503220003 | 43 | 178 | 5.2 | 5.2 | 0.01 | 0.04 | 0.04 | 93 | 1009.5 |
| 20260503215503 | 43 | 165 | 0.9 | 4.3 | 0.02 | 0.04 | 0.04 | 92 | 1009.5 |
| 20260503214003 | 43 | 191 | 0.0 | 5.2 | 0.04 | 0.04 | 0.04 | 92 | 1009.1 |
| 20260503213503 | 43 | 186 | 1.7 | 5.2 | 0.04 | 0.04 | 0.04 | 92 | 1009.1 |
| 20260503213004 | 43 | 199 | 1.7 | 4.3 | 0.04 | 0.04 | 0.04 | 93 | 1009.5 |
| 20260503212503 | 43 | 150 | 2.6 | 6.1 | 0.04 | 0.04 | 0.04 | 93 | 1008.8 |
| 20260503212003 | 43 | 166 | 0.9 | 6.1 | 0.04 | 0.04 | 0.04 | 92 | 1009.5 |
| 20260503211503 | 44 | 259 | 1.7 | 6.1 | 0.04 | 0.04 | 0.04 | 91 | 1009.5 |
| 20260503211003 | 44 | 287 | 0.9 | 7.0 | 0.04 | 0.04 | 0.04 | 91 | 1009.8 |
| 20260503210503 | 44 | 315 | 0.9 | 11.3 | 0.04 | 0.04 | 0.04 | 88 | 1009.8 |
| 20260503210004 | 46 | 270 | 1.7 | 11.3 | 0.03 | 0.03 | 0.03 | 83 | 1009.8 |
| 20260503205503 | 47 | 281 | 6.1 | 11.3 | 0.02 | 0.02 | 0.02 | 81 | 1009.5 |
| 20260503205004 | 48 | 268 | 5.2 | 10.4 | 0.01 | 0.01 | 0.01 | 76 | 1009.5 |
| 20260503204503 | 49 | 297 | 5.2 | 7.8 | 0.00 | 0.00 | 0.00 | 72 | 1008.8 |
| 20260503204004 | 49 | 305 | 1.7 | 4.3 | 0.00 | 0.00 | 0.00 | 73 | 1008.8 |
| 20260503203503 | 49 | 161 | 0.0 | 4.3 | 0.00 | 0.00 | 0.00 | 70 | 1009.1 |
| 20260503203003 | 49 | 264 | 1.7 | 4.3 | 0.00 | 0.00 | 0.00 | 70 | 1009.1 |
| 20260503202503 | 49 | 171 | 1.7 | 2.6 | 0.00 | 0.00 | 0.00 | 71 | 1009.1 |
| 20260503201503 | 49 | 155 | 0.0 | 13.0 | 0.00 | 0.00 | 0.00 | 72 | 1008.8 |
| 20260503201003 | 48 | 105 | 0.0 | 13.0 | 0.00 | 0.00 | 0.00 | 72 | 1009.1 |
| 20260503200503 | 48 | 297 | 4.3 | 13.0 | 0.00 | 0.00 | 0.00 | 71 | 1009.5 |
| 20260503200004 | 48 | 238 | 1.7 | 12.2 | 0.00 | 0.00 | 0.00 | 73 | 1009.5 |
| 20260503195503 | 49 | 201 | 4.3 | 12.2 | 0.00 | 0.00 | 0.00 | 71 | 1009.5 |
| 20260503195003 | 50 | 320 | 6.1 | 11.3 | 0.00 | 0.00 | 0.00 | 65 | 1009.5 |
| 20260503194503 | 51 | 297 | 2.6 | 11.3 | 0.00 | 0.00 | 0.00 | 61 | 1009.5 |
| 20260503194003 | 51 | 189 | 0.9 | 8.7 | 0.00 | 0.00 | 0.00 | 61 | 1009.5 |
| 20260503193003 | 52 | 189 | 0.0 | 6.1 | 0.00 | 0.00 | 0.00 | 53 | 1009.5 |
| 20260503192503 | 53 | 195 | 6.1 | 10.4 | 0.00 | 0.00 | 0.00 | 52 | 1009.5 |
| 20260503192003 | 53 | 260 | 1.7 | 10.4 | 0.00 | 0.00 | 0.00 | 52 | 1009.1 |
| 20260503191503 | 52 | 203 | 2.6 | 10.4 | 0.00 | 0.00 | 0.00 | 53 | 1009.5 |
| 20260503191003 | 52 | 194 | 1.7 | 10.4 | 0.00 | 0.00 | 0.00 | 52 | 1009.8 |
| 20260503190504 | 52 | 210 | 4.3 | 11.3 | 0.00 | 0.00 | 0.00 | 53 | 1009.5 |
| 20260503190003 | 52 | 222 | 2.6 | 11.3 | 0.00 | 0.00 | 0.00 | 53 | 1009.7 |
| 20260503185503 | 52 | 205 | 1.7 | 11.3 | 0.00 | 0.00 | 0.00 | 54 | 1010.0 |
| 20260503185003 | 52 | 187 | 4.3 | 11.3 | 0.00 | 0.00 | 0.00 | 53 | 1010.0 |
| 20260503184004 | 51 | 174 | 0.9 | 10.4 | 0.00 | 0.00 | 0.00 | 52 | 1009.8 |
| 20260503183503 | 51 | 161 | 2.6 | 10.4 | 0.00 | 0.00 | 0.00 | 51 | 1009.8 |
| 20260503183004 | 51 | 177 | 1.7 | 10.4 | 0.00 | 0.00 | 0.00 | 52 | 1010.0 |
| 20260503182504 | 51 | 258 | 0.0 | 10.4 | 0.00 | 0.00 | 0.00 | 52 | 1010.5 |
| 20260503181004 | 51 | 207 | 2.6 | 10.4 | 0.00 | 0.00 | 0.00 | 53 | 1010.8 |
| 20260503180504 | 50 | 263 | 2.6 | 10.4 | 0.00 | 0.00 | 0.00 | 52 | 1010.8 |
| 20260503175502 | 50 | 215 | 3.5 | 13.9 | 0.00 | 0.00 | 0.00 | 49 | 1010.8 |
| 20260503175003 | 50 | 168 | 5.2 | 13.9 | 0.00 | 0.00 | 0.00 | 49 | 1010.5 |
| 20260503174503 | 51 | 203 | 4.3 | 15.6 | 0.00 | 0.00 | 0.00 | 49 | 1010.8 |
| 20260503173503 | 51 | 176 | 5.2 | 15.6 | 0.00 | 0.00 | 0.00 | 48 | 1010.5 |
| 20260503172504 | 52 | 279 | 4.3 | 13.0 | 0.00 | 0.00 | 0.00 | 46 | 1011.5 |
| 20260503172003 | 51 | 228 | 2.6 | 13.0 | 0.00 | 0.00 | 0.00 | 48 | 1011.2 |
| 20260503171503 | 52 | 249 | 2.6 | 10.4 | 0.00 | 0.00 | 0.00 | 46 | 1010.8 |
| 20260503171003 | 53 | 197 | 1.7 | 6.1 | 0.00 | 0.00 | 0.00 | 45 | 1011.2 |
| 20260503170503 | 53 | 211 | 5.2 | 7.8 | 0.00 | 0.00 | 0.00 | 46 | 1010.8 |
| 20260503151004 | 47 | 99 | 1.7 | 8.7 | 0.00 | 0.00 | 0.00 | 46 | 1012.9 |
| 20260503150503 | 46 | 103 | 0.9 | 8.7 | 0.00 | 0.00 | 0.00 | 46 | 1012.9 |
| 20260503131003 | 40 | 203 | 0.9 | 6.1 | 0.00 | 0.00 | 0.00 | 66 | 1013.7 |
| 20260503130504 | 40 | 171 | 1.7 | 6.1 | 0.00 | 0.00 | 0.00 | 66 | 1013.9 |
| 20260503110504 | 33 | 74 | 1.7 | 1.7 | 0.00 | 0.00 | 0.00 | 71 | 1014.2 |
| 20260503090503 | 34 | 91 | 0.9 | 1.7 | 0.00 | 0.00 | 0.00 | 65 | 1014.2 |
| 20260503081503 | 35 | 113 | 1.7 | 1.7 | 0.00 | 0.00 | 0.00 | 64 | 1014.6 |
| 20260503081004 | 34 | 109 | 1.7 | 1.7 | 0.00 | 0.00 | 0.00 | 64 | 1014.2 |
| 20260503072503 | 35 | 94 | 0.9 | 1.7 | 0.00 | 0.00 | 0.00 | 65 | 1015.0 |
| 20260503072004 | 35 | 104 | 0.9 | 1.7 | 0.00 | 0.00 | 0.00 | 64 | 1014.7 |
| 20260503071503 | 34 | 109 | 1.7 | 1.7 | 0.00 | 0.00 | 0.00 | 64 | 1014.7 |
| 20260503071004 | 35 | 108 | 1.7 | 2.6 | 0.00 | 0.00 | 0.00 | 64 | 1015.0 |
| 20260503070503 | 35 | 110 | 1.7 | 2.6 | 0.00 | 0.00 | 0.00 | 63 | 1015.2 |
| 20260503054503 | 32 | 139 | 1.7 | 2.6 | 0.00 | 0.00 | 0.00 | 73 | 1015.2 |
| 20260503053503 | 31 | 139 | 1.7 | 1.7 | 0.00 | 0.00 | 0.00 | 76 | 1015.6 |
| 20260503053003 | 30 | 113 | 0.9 | 1.7 | 0.00 | 0.00 | 0.00 | 77 | 1015.2 |
| 20260503052502 | 30 | 105 | 0.0 | 1.7 | 0.00 | 0.00 | 0.00 | 77 | 1015.6 |
| 20260503051503 | 30 | 112 | 1.7 | 1.7 | 0.00 | 0.00 | 0.00 | 77 | 1015.6 |
| 20260503051002 | 31 | 108 | 1.7 | 1.7 | 0.00 | 0.00 | 0.00 | 76 | 1015.6 |
| 20260503050502 | 32 | 102 | 1.7 | 1.7 | 0.00 | 0.00 | 0.00 | 73 | 1015.6 |
| 20260503050002 | 34 | 108 | 1.7 | 1.7 | 0.00 | 0.00 | 0.00 | 70 | 1015.6 |
| 20260503045503 | 35 | 100 | 1.7 | 1.7 | 0.00 | 0.00 | 0.00 | 69 | 1015.6 |
| 20260503045003 | 35 | 102 | 0.9 | 1.7 | 0.00 | 0.00 | 0.00 | 68 | 1015.9 |
| 20260503043502 | 34 | 109 | 1.7 | 1.7 | 0.00 | 0.00 | 0.00 | 70 | 1016.3 |
| 20260503043002 | 34 | 117 | 1.7 | 1.7 | 0.00 | 0.00 | 0.00 | 71 | 1015.6 |
| 20260503042502 | 34 | 122 | 1.7 | 1.7 | 0.00 | 0.00 | 0.00 | 70 | 1015.9 |
| 20260503042003 | 33 | 101 | 0.0 | 1.7 | 0.00 | 0.00 | 0.00 | 71 | 1016.3 |
| 20260503041503 | 32 | 109 | 0.9 | 1.7 | 0.00 | 0.00 | 0.00 | 73 | 1015.9 |
| 20260503041004 | 31 | 100 | 0.9 | 1.7 | 0.00 | 0.00 | 0.00 | 74 | 1015.9 |
| 20260503040502 | 31 | 103 | 1.7 | 1.7 | 0.00 | 0.00 | 0.00 | 75 | 1015.9 |
| 20260503035503 | 31 | 89 | 0.9 | 1.7 | 0.00 | 0.00 | 0.00 | 73 | 1015.9 |
| 20260503035002 | 32 | 87 | 0.9 | 2.6 | 0.00 | 0.00 | 0.00 | 73 | 1015.6 |
| 20260503034003 | 34 | 122 | 2.6 | 2.6 | 0.00 | 0.00 | 0.00 | 68 | 1015.9 |
| 20260503033502 | 35 | 111 | 1.7 | 1.7 | 0.00 | 0.00 | 0.00 | 64 | 1015.9 |
| 20260503033002 | 36 | 108 | 1.7 | 1.7 | 0.00 | 0.00 | 0.00 | 64 | 1015.9 |
| 20260503032504 | 36 | 108 | 1.7 | 1.7 | 0.00 | 0.00 | 0.00 | 62 | 1016.3 |
| 20260503032004 | 36 | 96 | 0.9 | 1.7 | 0.00 | 0.00 | 0.00 | 63 | 1015.9 |
| 20260503031503 | 36 | 102 | 1.7 | 1.7 | 0.00 | 0.00 | 0.00 | 63 | 1015.9 |
| 20260503031003 | 36 | 116 | 1.7 | 1.7 | 0.00 | 0.00 | 0.00 | 63 | 1016.3 |
| 20260503030502 | 35 | 80 | 0.9 | 1.7 | 0.00 | 0.00 | 0.00 | 64 | 1016.6 |
| 20260503030003 | 34 | 77 | 0.9 | 1.7 | 0.00 | 0.00 | 0.00 | 65 | 1015.9 |
| 20260503025503 | 33 | 86 | 1.7 | 1.7 | 0.00 | 0.00 | 0.00 | 66 | 1016.3 |
| 20260503024003 | 34 | 100 | 0.0 | 1.7 | 0.00 | 0.00 | 0.00 | 64 | 1015.9 |
| 20260503023504 | 34 | 39 | 0.9 | 2.6 | 0.00 | 0.00 | 0.00 | 62 | 1016.3 |
| 20260503023003 | 35 | 68 | 0.0 | 2.6 | 0.00 | 0.00 | 0.00 | 62 | 1016.3 |
| 20260503022003 | 36 | 115 | 0.0 | 2.6 | 0.00 | 0.00 | 0.00 | 60 | 1016.3 |
| 20260503021503 | 37 | 82 | 0.9 | 2.6 | 0.00 | 0.00 | 0.00 | 60 | 1016.3 |
| 20260503021003 | 37 | 81 | 0.0 | 2.6 | 0.00 | 0.00 | 0.00 | 59 | 1016.6 |
| 20260503020003 | 37 | 13 | 0.9 | 1.7 | 0.00 | 0.00 | 0.00 | 59 | 1016.6 |
| 20260503015502 | 37 | 27 | 0.9 | 1.7 | 0.00 | 0.00 | 0.00 | 58 | 1015.9 |
| 20260503015003 | 37 | 348 | 0.9 | 1.7 | 0.00 | 0.00 | 0.00 | 58 | 1015.9 |
| 20260503014003 | 36 | 310 | 0.0 | 1.7 | 0.00 | 0.00 | 0.00 | 59 | 1016.3 |
| 20260503013504 | 36 | 75 | 0.0 | 1.7 | 0.00 | 0.00 | 0.00 | 61 | 1016.3 |
| 20260503013002 | 35 | 18 | 0.0 | 2.6 | 0.00 | 0.00 | 0.00 | 61 | 1016.3 |
| 20260503012502 | 35 | 34 | 0.0 | 2.6 | 0.00 | 0.00 | 0.00 | 62 | 1015.9 |
| 20260503012003 | 35 | 23 | 0.9 | 2.6 | 0.00 | 0.00 | 0.00 | 62 | 1016.2 |
| 20260503011503 | 35 | 343 | 0.9 | 2.6 | 0.00 | 0.00 | 0.00 | 61 | 1016.3 |
| 20260503010003 | 36 | 357 | 0.0 | 1.7 | 0.00 | 0.00 | 0.00 | 61 | 1016.1 |
| 20260503005003 | 36 | 339 | 0.0 | 4.3 | 0.00 | 0.00 | 0.00 | 60 | 1015.9 |
| 20260503004503 | 36 | 330 | 0.9 | 4.3 | 0.00 | 0.00 | 0.00 | 60 | 1015.9 |
| 20260503004002 | 36 | 10 | 0.9 | 4.3 | 0.00 | 0.00 | 0.00 | 59 | 1015.8 |
| 20260503003503 | 36 | 354 | 1.7 | 4.3 | 0.00 | 0.00 | 0.00 | 60 | 1015.6 |
| 20260503003003 | 37 | 320 | 0.9 | 4.3 | 0.00 | 0.00 | 0.00 | 59 | 1015.6 |
| 20260503002502 | 37 | 73 | 0.9 | 4.3 | 0.00 | 0.00 | 0.00 | 59 | 1015.9 |
| 20260503002004 | 37 | 307 | 1.7 | 4.3 | 0.00 | 0.00 | 0.00 | 57 | 1015.9 |